SCP
0 0 0 0 0 0 0 0 0 0 0 0 0 0 0 0 0 0 0 0 0 0 0 0 0 0 0 0 0 0 0 0 0 0 0 0 0 0 0 0 0 0 0 0 0 0 0
0 0 0 0 0 0 0 0 0 0 0 0 0 0 0 0 0 0 0 0 0 0 0 0 0 0 0 0 0 0 0 0 0 0 0 0 0 0 0 0 0 0 0 0 0 0 0
0 0 0 0 0 0 0 0 0 0 0 0 0 0 0 0 0 0 0 0 0 0 0 0 0 0 0 0 0 0 0 0 0 0 0 0 0 0 0 0 0 0 0 0 0 0 0
0 0 0 0 0 0 0 0 0 0 0 0 0 0 0 0 0 0 0 0 0 0 0 0 0 0 0 0 0 0 0 0 0 0 0 0 0 0 0 0 0 0 0 0 0 0 0
0 0 0 0 0 0 0 0 0 0 0 0 0 0 0 0 0 0 0 0 0 0 0 0 0 0 0 0 0 0 0 0 0 0 0 0 0 0 0 0 0 0 0 0 0 0 0
0 0 0 0 0 0 -0 -0 0 0 0 0 0 0 0 0 0 0 0 0 0 0 0 0 0 0 0 0 0 0 0 0 0 0 0 0 0 0 0 0 0 0 0 0 0 0 0
0 0 0 0 0 0 0 0 0 0 0 0 0 0 0 0 0 0 0 0 0 0 0 0 0 0 0 0 0 0 0 0 0 0 0 0 0 0 -0 0 0 0 0 0 0 0 0
0 0 0 0 0 0 0 0 0 0 0 0 0 0 0 0 0 0 0 0 0 0 0 0 0 0 0 0 0 0 0 0 0 0 0 0 0 -0 0 0 0 0 0 0 0 0 0
0 0 0 0 0 0 0 0 0 0 0 0 0 0 0 0 0 0 0 0 0 0 0 0 0 0 0 0 0 0 0 0 0 0 0 0 0 0 0 0 0 0 0 0 0 0 0
0 0 0 0 0 0 0 0 0 0 0 0 0 0 0 0 0 0 0 0 0 0 0 0 0 0 0 0 0 0 0 0 0 0 0 0 -0 -0 -0 -0 0 0 0 0 0 0 0
0 0 0 0 0 0 0 0 0 0 0 0 0 0 0 0 0 0 0 0 0 0 0 0 0 0 0 0 -0 0 0 0 0 0 0 0 0 0 -0 -0 -0 -0 0 0 0 0 -0
0 0 0 0 0 0 0 0 0 0 0 0 0 0 0 0 0 0 0 0 0 0 0 0 0 0 0 -0 -0 -0 -0 0 0 0 0 0 0 -0 0 -0 -0 -0 0 0 0 0 0
0 0 0 0 0 0 0 0 0 0 0 0 0 0 0 0 0 0 0 0 0 0 0 0 0 0 0 0 -0 0 -0 -0 -0 0 0 0 0 0 0 -0 -0 -0 0 0 -0 -0 0
0 0 0 0 0 0 0 0 0 0 0 0 0 0 0 0 0 0 0 0 0 0 0 0 0 -0 -0 -0 -0 -0 0 -0 -0 0 0 0 0 0 0 0 0 0 -0 -0 0 0 0
0 0 0 0 0 0 0 0 0 0 0 0 0 0 0 -0 0 0 0 0 0 0 0 0 0 0 -0 -0 0 -0 0 0 0 0 -0 -0 0 0 0 0 -0 0 -0 -0 0 0 0
0 0 0 0 0 0 0 0 0 0 0 0 0 0 0 -0 0 0 0 0 0 0 0 0 0 0 0 -0 -0 -0 -0 0 -0 0 -0 0 0 0 0 0 0 0 -0 -0 0 0 0
0 0 0 0 0 0 0 0 0 0 0 0 0 0 -0 -0 0 0 0 0 0 0 0 0 0 0 0 -0 -0 0 -0 0 -0 -0 -0 0 0 -0 0 0 0 0 0 0 0 0 0
0 0 0 0 0 0 0 0 0 0 0 0 0 0 -0 -0 0 0 0 0 0 0 0 0 0 -0 0 0 -0 -0 -0 0 -0 -0 -0 -0 -0 0 0 0 0 0 0 0 0 0 0
0 0 0 0 0 0 0 0 0 0 0 0 0 0 -0 -0 0 0 0 0 0 0 0 -0 0 -0 0 0 -0 -0 0 0 0 -0 -0 -0 0 0 0 0 0 0 0 0 0 0 0
0 0 0 0 0 0 0 0 0 0 0 -0 0 0 0 0 0 0 0 0 0 0 0 0 -0 0 0 0 0 -0 -0 0 -0 0 -0 0 0 0 0 0 0 -0 -0 0 -0 0 0
0 0 0 0 0 0 0 0 0 0 0 -0 0 0 0 0 0 0 0 0 0 0 0 0 -0 0 0 0 0 -0 -0 0 0 0 0 0 0 0 -0 0 0 -0 -0 -0 -0 0 0
0 -0 0 0 0 0 0 0 0 0 0 0 0 0 0 0 0 0 0 0 0 0 0 0 0 0 0 0 0 0 -0 0 0 0 0 0 0 0 -0 -0 -0 -0 -0 -0 -0 0 -0
0 0 0 0 0 0 0 0 0 0 0 0 0 0 0 0 0 0 -0 0 0 0 0 0 0 0 0 0 0 0 0 0 0 0 0 0 0 0 0 -0 0 -0 -0 -0 0 0 0
0 0 0 0 0 -0 0 -0 0 0 -0 -0 0 0 0 0 0 0 -0 -0 0 0 0 0 0 0 0 0 0 0 0 0 0 0 0 0 0 0 0 -0 -0 0 0 0 0 -0 -0
0 0 0 0 0 -0 -0 -0 -0 0 0 -0 0 0 0 0 0 -0 -0 -0 -0 0 0 0 0 0 0 0 0 0 0 0 0 0 0 0 0 0 0 0 0 0 0 0 0 -0 -0
0 0 0 0 0 0 -0 -0 -0 -0 0 0 -0 -0 0 0 -0 -0 0 0 0 0 0 0 0 0 0 0 0 0 0 0 0 -0 0 0 0 0 0 -0 0 0 0 0 0 0 -0
0 0 0 0 0 0 -0 -0 -0 -0 -0 0 -0 -0 0 0 -0 -0 0 0 0 0 0 0 0 0 0 0 0 0 0 0 0 0 0 0 0 0 0 0 0 0 0 0 0 0 0
0 0 0 0 0 0 -0 -0 -0 -0 -0 -0 0 -0 -0 -0 0 -0 -0 -0 -0 0 0 0 0 0 0 0 0 0 0 0 0 0 0 0 0 0 0 0 0 0 -0 0 -0 0 0
0 0 0 0 0 0 0 -0 -0 -0 -0 0 -0 0 0 0 0 -0 -0 -0 -0 0 0 0 0 0 -0 -0 -0 0 0 0 0 0 0 0 0 0 -0 0 0 0 0 -0 0 -0 -0
Wind_Speed_500mb
17 13 12 13 9 15 17 24 25 29 27 20 18 22 31 30 29 25 21 26 28 28 28 27 25 26 29 25 42 34 34 35 37 43 46 41 30 18 12 11 22 24 23 27 34 48 40
21 14 17 20 18 22 15 19 23 32 27 20 25 31 31 33 27 25 29 30 30 30 30 30 27 26 29 43 33 15 17 25 24 28 25 17 21 32 18 14 18 14 23 32 27 38 32
20 15 18 26 28 26 22 25 32 24 28 34 33 33 38 34 30 30 27 29 32 33 33 31 30 28 37 63 45 42 49 50 48 50 46 38 29 30 12 7 32 29 24 26 31 27 18
17 20 20 17 24 26 25 31 35 36 38 33 31 25 25 25 27 28 32 37 39 37 41 38 29 24 33 39 44 29 23 28 26 22 30 32 47 36 47 27 11 8 10 28 10 18 18
22 22 13 17 21 21 27 38 43 31 17 19 23 27 30 31 35 35 37 39 39 41 42 24 21 17 25 21 21 23 25 33 31 38 38 27 31 42 19 27 17 11 18 13 12 25 13
23 19 19 27 31 36 40 40 26 19 25 34 36 39 38 36 33 32 34 36 38 31 20 11 21 9 25 12 27 46 50 42 43 35 27 27 23 16 23 18 37 17 18 22 23 9 29
26 23 27 33 30 32 28 19 24 27 37 40 40 43 41 38 33 30 28 27 13 10 8 15 20 32 55 39 40 47 37 33 26 15 16 28 17 35 50 44 20 13 19 17 13 29 18
25 25 31 30 32 27 22 27 35 40 42 45 42 40 37 31 25 20 18 11 4 13 24 28 29 36 38 37 28 38 25 11 13 19 22 10 42 52 31 29 37 26 15 20 25 23 22
26 28 30 31 24 24 30 36 38 41 32 28 22 15 14 14 14 13 9 7 9 18 7 17 13 20 17 21 18 43 14 13 13 15 29 32 49 28 41 34 40 42 37 34 24 5 32
29 27 31 31 22 32 34 36 24 21 20 13 5 8 7 9 8 7 7 8 18 18 9 11 6 6 14 29 14 23 25 17 12 15 19 25 39 33 29 48 35 40 49 37 29 13 20
31 29 26 27 25 29 26 15 15 16 10 8 5 4 5 5 3 5 8 13 15 6 8 17 11 15 41 11 25 2 19 15 18 26 6 12 12 30 31 42 43 30 30 43 35 33 29
34 32 28 24 24 22 10 10 9 7 3 7 6 9 9 3 9 8 11 13 3 11 10 17 15 17 17 11 8 18 15 17 29 18 10 26 12 23 16 28 39 27 20 33 22 18 15
35 28 24 20 19 11 5 1 6 8 9 14 19 10 8 4 5 9 10 4 9 10 9 19 12 19 10 11 13 6 18 17 10 15 10 10 6 4 14 23 30 32 15 11 14 9 10
36 30 25 15 11 6 6 9 14 16 18 21 18 10 5 2 4 7 6 9 12 6 11 11 12 27 4 13 7 14 16 14 5 9 9 6 6 4 13 12 8 27 18 5 11 12 7
39 33 27 18 16 15 15 15 17 19 20 19 15 12 7 5 5 6 3 10 11 5 9 17 21 11 13 9 5 12 7 6 8 10 9 7 6 4 5 3 4 13 15 1 4 5 8
42 38 31 24 24 24 22 18 21 21 19 16 13 10 14 9 8 5 10 6 3 7 11 8 8 2 7 13 13 9 8 6 17 7 8 8 9 6 6 7 13 5 9 6 7 7 9
46 43 35 31 30 30 26 23 21 20 17 12 9 5 13 9 6 9 7 8 4 10 13 6 7 8 10 9 6 8 11 8 10 16 21 9 5 10 0 12 4 6 4 4 4 6 7
50 47 40 38 35 36 30 26 21 18 13 11 6 5 13 5 9 8 5 5 7 8 8 7 9 8 7 9 9 7 9 9 29 33 17 6 6 6 5 7 2 5 9 5 3 5 8
52 52 46 44 38 40 34 30 23 18 15 15 10 6 15 2 6 3 5 1 7 7 4 7 6 3 8 7 10 7 10 17 28 22 16 13 7 5 13 7 5 12 15 10 11 7 13
58 59 53 49 42 41 37 32 25 21 20 19 9 4 11 15 14 13 6 5 3 6 5 5 8 11 14 6 3 12 15 11 42 25 30 5 12 8 11 8 8 12 37 20 9 8 16
64 65 59 54 48 44 39 33 27 24 26 20 7 2 6 1 5 8 5 2 6 7 3 4 10 8 8 8 12 9 11 16 19 43 24 8 15 18 18 12 18 33 36 40 24 3 12
68 69 64 60 55 49 41 35 29 29 32 16 11 14 10 10 15 8 5 1 3 7 1 7 4 15 10 6 5 10 17 11 8 25 19 17 6 9 12 21 31 33 45 36 27 21 22
69 74 69 67 60 52 44 38 33 34 37 12 16 30 13 3 5 7 5 3 2 3 6 9 8 8 8 5 19 31 25 30 19 16 9 11 6 10 10 18 11 20 26 26 9 15 4
68 78 75 72 65 56 47 41 37 36 38 14 35 29 12 2 3 5 4 4 3 4 5 7 8 2 7 29 35 27 26 33 23 21 9 3 7 4 4 12 15 9 16 12 15 23 22
83 81 80 77 70 60 52 45 40 38 33 27 40 17 13 5 9 4 6 3 4 9 5 6 5 12 25 17 8 12 10 9 8 10 14 8 6 8 8 5 4 8 13 9 10 12 12
87 87 85 81 74 65 56 48 42 40 37 41 31 20 15 28 9 11 8 6 2 4 9 5 8 14 14 8 8 6 3 6 12 24 3 10 15 8 9 12 6 6 9 11 7 8 15
87 92 89 84 77 68 60 51 46 46 49 40 30 25 17 15 15 17 5 5 2 2 4 6 10 8 13 5 7 5 3 4 7 5 10 11 9 10 7 6 11 10 16 12 11 6 7
97 97 93 87 81 72 63 55 52 53 48 39 35 29 16 13 24 14 8 6 3 2 3 8 5 9 8 9 6 3 4 5 4 5 1 3 5 1 5 11 6 9 12 5 2 3 5
101 96 97 91 84 77 68 60 56 54 48 39 40 30 17 13 18 18 11 7 3 2 2 8 4 2 3 7 3 5 3 4 2 5 5 6 8 6 8 9 6 2 8 8 12 13 8
Wind_Direction_500mb
304 220 242 247 265 279 283 286 291 302 314 295 300 300 302 306 305 299 309 312 311 311 306 305 302 305 308 283 264 278 258 259 263 272 275 273 253 242 225 235 247 251 265 268 268 278 284
262 234 257 269 239 249 285 290 278 286 302 296 295 292 296 303 307 304 312 310 309 307 307 304 298 297 288 266 289 298 283 267 260 277 279 249 239 240 259 246 242 271 282 275 273 270 286
239 243 250 261 253 244 257 289 296 290 286 285 288 287 291 292 294 299 302 306 309 312 306 295 290 286 269 256 274 278 281 274 268 262 259 258 248 237 225 276 260 272 276 281 266 261 254
237 240 261 280 291 254 272 288 281 283 288 295 294 296 298 298 298 298 301 304 307 307 300 294 286 273 259 273 288 273 266 275 273 273 262 264 244 257 232 248 312 270 268 253 232 215 223
253 257 255 277 279 275 272 276 283 289 297 308 308 300 297 298 295 299 303 302 305 302 297 285 267 229 262 279 275 286 272 266 267 268 270 262 239 231 234 226 240 210 246 256 283 223 232
261 242 267 267 267 269 268 272 286 282 303 300 295 288 289 293 297 300 301 303 307 297 294 256 240 242 257 284 293 292 293 278 277 268 244 219 207 204 210 198 224 198 200 232 234 231 211
258 250 264 268 280 281 283 281 283 295 296 288 288 287 284 289 297 302 303 313 321 289 247 234 270 256 281 298 295 295 307 286 257 209 207 189 203 214 214 211 219 199 226 255 237 232 242
261 260 274 276 277 276 287 297 296 286 281 280 278 278 281 282 290 297 304 332 346 319 306 292 265 265 283 291 289 307 300 230 206 226 214 211 225 219 211 216 215 219 206 238 264 269 226
263 256 266 272 280 290 295 289 288 292 295 292 288 288 278 279 280 278 290 303 323 336 291 296 298 288 301 294 272 296 269 243 221 233 224 216 237 209 201 213 213 213 214 222 224 303 226
267 258 268 282 282 293 293 301 302 307 301 317 307 276 266 265 260 267 293 314 328 331 64 286 350 306 313 315 277 298 277 239 212 252 243 241 257 225 207 213 194 216 211 222 228 237 243
268 259 273 282 293 294 302 310 334 325 286 246 231 230 225 186 272 267 312 318 322 340 18 310 311 318 321 227 301 216 306 238 259 267 220 248 227 193 206 211 202 236 194 207 210 227 234
263 257 266 274 284 296 307 334 344 13 98 167 166 131 122 211 267 289 312 320 335 43 270 330 330 336 351 303 281 298 306 263 267 284 236 265 288 186 200 196 197 193 198 196 217 252 226
256 251 251 268 287 289 305 16 65 82 119 134 133 133 145 230 278 309 318 300 32 107 339 318 336 335 333 289 309 321 322 315 333 320 343 311 175 191 232 187 202 199 173 173 195 173 240
248 242 238 247 252 225 162 121 103 110 123 131 135 135 141 206 317 323 314 49 65 242 262 308 312 315 304 347 321 315 320 342 345 303 294 317 333 217 169 231 196 191 219 233 193 172 136
240 233 233 223 191 190 161 132 124 122 132 138 136 129 87 49 3 343 285 50 202 244 317 322 322 17 320 344 2 351 301 299 304 318 319 305 285 254 317 308 187 147 204 187 237 25 100
231 225 222 207 193 177 162 146 137 133 143 142 143 128 38 21 5 1 70 141 266 255 315 305 335 61 305 313 336 15 315 279 315 320 292 285 294 352 350 281 68 262 131 187 216 131 86
225 217 214 197 191 176 168 159 148 145 148 148 155 138 9 11 13 51 113 211 269 274 300 299 312 298 272 302 285 294 286 284 323 308 309 293 272 313 227 21 5 339 3 11 121 16 122
223 216 209 196 192 178 176 171 163 158 158 168 148 58 4 12 36 50 103 174 263 310 282 268 256 253 263 304 282 294 302 281 331 322 332 302 320 27 343 264 325 332 321 260 69 83 41
219 214 205 196 191 178 179 177 177 179 177 161 125 112 29 100 105 67 238 296 256 327 330 326 296 338 281 280 306 286 301 283 335 338 342 333 14 15 338 21 28 33 341 330 83 65 38
220 209 203 196 193 183 180 182 182 183 172 169 145 65 49 60 82 124 143 280 302 269 273 300 283 302 326 303 244 304 308 301 327 343 350 23 14 77 73 33 327 26 17 19 82 75 81
214 207 203 196 195 189 183 187 185 181 172 175 145 120 121 215 18 117 197 226 355 349 295 332 342 350 355 305 319 317 315 312 321 351 356 55 36 52 62 32 51 54 32 39 57 9 76
208 204 203 198 195 191 187 189 187 181 176 188 145 134 110 97 116 102 339 255 341 336 70 316 321 319 321 267 310 310 333 10 344 327 348 346 32 344 24 4 42 50 24 23 37 46 70
202 206 201 198 196 192 188 189 185 182 177 184 145 133 133 66 120 88 232 225 292 27 267 264 295 318 313 269 290 285 278 279 273 314 313 12 36 14 336 346 16 34 0 359 15 13 128
205 205 200 197 195 192 188 187 185 183 183 190 163 141 118 239 157 189 209 184 221 223 232 283 292 243 306 315 305 279 257 268 271 281 249 298 82 33 293 354 44 317 311 260 36 35 50
199 204 199 196 193 191 188 186 184 182 182 173 165 152 132 121 144 127 176 198 274 289 266 264 301 312 324 334 12 0 350 19 325 294 340 5 101 57 86 45 307 342 356 9 20 7 15
198 200 198 196 192 189 186 184 181 180 175 169 172 162 133 128 229 149 175 194 246 292 329 268 323 332 353 37 56 82 25 213 322 336 11 11 52 91 38 86 107 260 314 346 314 16 1
191 198 197 194 191 188 183 181 178 173 168 176 170 161 142 111 153 159 163 164 249 297 233 312 339 359 3 48 63 79 315 210 12 10 325 339 4 80 42 91 299 273 307 350 62 244 15
186 196 195 194 189 185 182 179 177 173 172 178 168 166 166 131 149 172 171 156 208 353 128 342 19 8 27 56 95 254 101 245 37 250 131 136 87 78 54 60 346 341 331 124 254 26 90
190 193 195 192 187 183 180 178 177 176 176 180 174 171 175 148 144 164 163 133 107 14 345 22 98 111 107 88 33 106 22 23 157 338 325 23 162 188 159 202 242 312 75 97 117 114 101
Wind_Speed_850mb
17 13 12 13 9 15 17 24 25 29 27 20 18 22 31 30 29 25 21 26 28 28 28 27 25 26 29 25 42 34 34 35 37 43 46 41 30 18 12 11 22 24 23 27 34 48 40
21 14 17 20 18 22 15 19 23 32 27 20 25 31 31 33 27 25 29 30 30 30 30 30 27 26 29 43 33 15 17 25 24 28 25 17 21 32 18 14 18 14 23 32 27 38 32
20 15 18 26 28 26 22 25 32 24 28 34 33 33 38 34 30 30 27 29 32 33 33 31 30 28 37 63 45 42 49 50 48 50 46 38 29 30 12 7 32 29 24 26 31 27 18
17 20 20 17 24 26 25 31 35 36 38 33 31 25 25 25 27 28 32 37 39 37 41 38 29 24 33 39 44 29 23 28 26 22 30 32 47 36 47 27 11 8 10 28 10 18 18
22 22 13 17 21 21 27 38 43 31 17 19 23 27 30 31 35 35 37 39 39 41 42 24 21 17 25 21 21 23 25 33 31 38 38 27 31 42 19 27 17 11 18 13 12 25 13
23 19 19 27 31 36 40 40 26 19 25 34 36 39 38 36 33 32 34 36 38 31 20 11 21 9 25 12 27 46 50 42 43 35 27 27 23 16 23 18 37 17 18 22 23 9 29
26 23 27 33 30 32 28 19 24 27 37 40 40 43 41 38 33 30 28 27 13 10 8 15 20 32 55 39 40 47 37 33 26 15 16 28 17 35 50 44 20 13 19 17 13 29 18
25 25 31 30 32 27 22 27 35 40 42 45 42 40 37 31 25 20 18 11 4 13 24 28 29 36 38 37 28 38 25 11 13 19 22 10 42 52 31 29 37 26 15 20 25 23 22
26 28 30 31 24 24 30 36 38 41 32 28 22 15 14 14 14 13 9 7 9 18 7 17 13 20 17 21 18 43 14 13 13 15 29 32 49 28 41 34 40 42 37 34 24 5 32
29 27 31 31 22 32 34 36 24 21 20 13 5 8 7 9 8 7 7 8 18 18 9 11 6 6 14 29 14 23 25 17 12 15 19 25 39 33 29 48 35 40 49 37 29 13 20
31 29 26 27 25 29 26 15 15 16 10 8 5 4 5 5 3 5 8 13 15 6 8 17 11 15 41 11 25 2 19 15 18 26 6 12 12 30 31 42 43 30 30 43 35 33 29
34 32 28 24 24 22 10 10 9 7 3 7 6 9 9 3 9 8 11 13 3 11 10 17 15 17 17 11 8 18 15 17 29 18 10 26 12 23 16 28 39 27 20 33 22 18 15
35 28 24 20 19 11 5 1 6 8 9 14 19 10 8 4 5 9 10 4 9 10 9 19 12 19 10 11 13 6 18 17 10 15 10 10 6 4 14 23 30 32 15 11 14 9 10
36 30 25 15 11 6 6 9 14 16 18 21 18 10 5 2 4 7 6 9 12 6 11 11 12 27 4 13 7 14 16 14 5 9 9 6 6 4 13 12 8 27 18 5 11 12 7
39 33 27 18 16 15 15 15 17 19 20 19 15 12 7 5 5 6 3 10 11 5 9 17 21 11 13 9 5 12 7 6 8 10 9 7 6 4 5 3 4 13 15 1 4 5 8
42 38 31 24 24 24 22 18 21 21 19 16 13 10 14 9 8 5 10 6 3 7 11 8 8 2 7 13 13 9 8 6 17 7 8 8 9 6 6 7 13 5 9 6 7 7 9
46 43 35 31 30 30 26 23 21 20 17 12 9 5 13 9 6 9 7 8 4 10 13 6 7 8 10 9 6 8 11 8 10 16 21 9 5 10 0 12 4 6 4 4 4 6 7
50 47 40 38 35 36 30 26 21 18 13 11 6 5 13 5 9 8 5 5 7 8 8 7 9 8 7 9 9 7 9 9 29 33 17 6 6 6 5 7 2 5 9 5 3 5 8
52 52 46 44 38 40 34 30 23 18 15 15 10 6 15 2 6 3 5 1 7 7 4 7 6 3 8 7 10 7 10 17 28 22 16 13 7 5 13 7 5 12 15 10 11 7 13
58 59 53 49 42 41 37 32 25 21 20 19 9 4 11 15 14 13 6 5 3 6 5 5 8 11 14 6 3 12 15 11 42 25 30 5 12 8 11 8 8 12 37 20 9 8 16
64 65 59 54 48 44 39 33 27 24 26 20 7 2 6 1 5 8 5 2 6 7 3 4 10 8 8 8 12 9 11 16 19 43 24 8 15 18 18 12 18 33 36 40 24 3 12
68 69 64 60 55 49 41 35 29 29 32 16 11 14 10 10 15 8 5 1 3 7 1 7 4 15 10 6 5 10 17 11 8 25 19 17 6 9 12 21 31 33 45 36 27 21 22
69 74 69 67 60 52 44 38 33 34 37 12 16 30 13 3 5 7 5 3 2 3 6 9 8 8 8 5 19 31 25 30 19 16 9 11 6 10 10 18 11 20 26 26 9 15 4
68 78 75 72 65 56 47 41 37 36 38 14 35 29 12 2 3 5 4 4 3 4 5 7 8 2 7 29 35 27 26 33 23 21 9 3 7 4 4 12 15 9 16 12 15 23 22
83 81 80 77 70 60 52 45 40 38 33 27 40 17 13 5 9 4 6 3 4 9 5 6 5 12 25 17 8 12 10 9 8 10 14 8 6 8 8 5 4 8 13 9 10 12 12
87 87 85 81 74 65 56 48 42 40 37 41 31 20 15 28 9 11 8 6 2 4 9 5 8 14 14 8 8 6 3 6 12 24 3 10 15 8 9 12 6 6 9 11 7 8 15
87 92 89 84 77 68 60 51 46 46 49 40 30 25 17 15 15 17 5 5 2 2 4 6 10 8 13 5 7 5 3 4 7 5 10 11 9 10 7 6 11 10 16 12 11 6 7
97 97 93 87 81 72 63 55 52 53 48 39 35 29 16 13 24 14 8 6 3 2 3 8 5 9 8 9 6 3 4 5 4 5 1 3 5 1 5 11 6 9 12 5 2 3 5
101 96 97 91 84 77 68 60 56 54 48 39 40 30 17 13 18 18 11 7 3 2 2 8 4 2 3 7 3 5 3 4 2 5 5 6 8 6 8 9 6 2 8 8 12 13 8
Wind_Direction_850mb
304 220 242 247 265 279 283 286 291 302 314 295 300 300 302 306 305 299 309 312 311 311 306 305 302 305 308 283 264 278 258 259 263 272 275 273 253 242 225 235 247 251 265 268 268 278 284
262 234 257 269 239 249 285 290 278 286 302 296 295 292 296 303 307 304 312 310 309 307 307 304 298 297 288 266 289 298 283 267 260 277 279 249 239 240 259 246 242 271 282 275 273 270 286
239 243 250 261 253 244 257 289 296 290 286 285 288 287 291 292 294 299 302 306 309 312 306 295 290 286 269 256 274 278 281 274 268 262 259 258 248 237 225 276 260 272 276 281 266 261 254
237 240 261 280 291 254 272 288 281 283 288 295 294 296 298 298 298 298 301 304 307 307 300 294 286 273 259 273 288 273 266 275 273 273 262 264 244 257 232 248 312 270 268 253 232 215 223
253 257 255 277 279 275 272 276 283 289 297 308 308 300 297 298 295 299 303 302 305 302 297 285 267 229 262 279 275 286 272 266 267 268 270 262 239 231 234 226 240 210 246 256 283 223 232
261 242 267 267 267 269 268 272 286 282 303 300 295 288 289 293 297 300 301 303 307 297 294 256 240 242 257 284 293 292 293 278 277 268 244 219 207 204 210 198 224 198 200 232 234 231 211
258 250 264 268 280 281 283 281 283 295 296 288 288 287 284 289 297 302 303 313 321 289 247 234 270 256 281 298 295 295 307 286 257 209 207 189 203 214 214 211 219 199 226 255 237 232 242
261 260 274 276 277 276 287 297 296 286 281 280 278 278 281 282 290 297 304 332 346 319 306 292 265 265 283 291 289 307 300 230 206 226 214 211 225 219 211 216 215 219 206 238 264 269 226
263 256 266 272 280 290 295 289 288 292 295 292 288 288 278 279 280 278 290 303 323 336 291 296 298 288 301 294 272 296 269 243 221 233 224 216 237 209 201 213 213 213 214 222 224 303 226
267 258 268 282 282 293 293 301 302 307 301 317 307 276 266 265 260 267 293 314 328 331 64 286 350 306 313 315 277 298 277 239 212 252 243 241 257 225 207 213 194 216 211 222 228 237 243
268 259 273 282 293 294 302 310 334 325 286 246 231 230 225 186 272 267 312 318 322 340 18 310 311 318 321 227 301 216 306 238 259 267 220 248 227 193 206 211 202 236 194 207 210 227 234
263 257 266 274 284 296 307 334 344 13 98 167 166 131 122 211 267 289 312 320 335 43 270 330 330 336 351 303 281 298 306 263 267 284 236 265 288 186 200 196 197 193 198 196 217 252 226
256 251 251 268 287 289 305 16 65 82 119 134 133 133 145 230 278 309 318 300 32 107 339 318 336 335 333 289 309 321 322 315 333 320 343 311 175 191 232 187 202 199 173 173 195 173 240
248 242 238 247 252 225 162 121 103 110 123 131 135 135 141 206 317 323 314 49 65 242 262 308 312 315 304 347 321 315 320 342 345 303 294 317 333 217 169 231 196 191 219 233 193 172 136
240 233 233 223 191 190 161 132 124 122 132 138 136 129 87 49 3 343 285 50 202 244 317 322 322 17 320 344 2 351 301 299 304 318 319 305 285 254 317 308 187 147 204 187 237 25 100
231 225 222 207 193 177 162 146 137 133 143 142 143 128 38 21 5 1 70 141 266 255 315 305 335 61 305 313 336 15 315 279 315 320 292 285 294 352 350 281 68 262 131 187 216 131 86
225 217 214 197 191 176 168 159 148 145 148 148 155 138 9 11 13 51 113 211 269 274 300 299 312 298 272 302 285 294 286 284 323 308 309 293 272 313 227 21 5 339 3 11 121 16 122
223 216 209 196 192 178 176 171 163 158 158 168 148 58 4 12 36 50 103 174 263 310 282 268 256 253 263 304 282 294 302 281 331 322 332 302 320 27 343 264 325 332 321 260 69 83 41
219 214 205 196 191 178 179 177 177 179 177 161 125 112 29 100 105 67 238 296 256 327 330 326 296 338 281 280 306 286 301 283 335 338 342 333 14 15 338 21 28 33 341 330 83 65 38
220 209 203 196 193 183 180 182 182 183 172 169 145 65 49 60 82 124 143 280 302 269 273 300 283 302 326 303 244 304 308 301 327 343 350 23 14 77 73 33 327 26 17 19 82 75 81
214 207 203 196 195 189 183 187 185 181 172 175 145 120 121 215 18 117 197 226 355 349 295 332 342 350 355 305 319 317 315 312 321 351 356 55 36 52 62 32 51 54 32 39 57 9 76
208 204 203 198 195 191 187 189 187 181 176 188 145 134 110 97 116 102 339 255 341 336 70 316 321 319 321 267 310 310 333 10 344 327 348 346 32 344 24 4 42 50 24 23 37 46 70
202 206 201 198 196 192 188 189 185 182 177 184 145 133 133 66 120 88 232 225 292 27 267 264 295 318 313 269 290 285 278 279 273 314 313 12 36 14 336 346 16 34 0 359 15 13 128
205 205 200 197 195 192 188 187 185 183 183 190 163 141 118 239 157 189 209 184 221 223 232 283 292 243 306 315 305 279 257 268 271 281 249 298 82 33 293 354 44 317 311 260 36 35 50
199 204 199 196 193 191 188 186 184 182 182 173 165 152 132 121 144 127 176 198 274 289 266 264 301 312 324 334 12 0 350 19 325 294 340 5 101 57 86 45 307 342 356 9 20 7 15
198 200 198 196 192 189 186 184 181 180 175 169 172 162 133 128 229 149 175 194 246 292 329 268 323 332 353 37 56 82 25 213 322 336 11 11 52 91 38 86 107 260 314 346 314 16 1
191 198 197 194 191 188 183 181 178 173 168 176 170 161 142 111 153 159 163 164 249 297 233 312 339 359 3 48 63 79 315 210 12 10 325 339 4 80 42 91 299 273 307 350 62 244 15
186 196 195 194 189 185 182 179 177 173 172 178 168 166 166 131 149 172 171 156 208 353 128 342 19 8 27 56 95 254 101 245 37 250 131 136 87 78 54 60 346 341 331 124 254 26 90
190 193 195 192 187 183 180 178 177 176 176 180 174 171 175 148 144 164 163 133 107 14 345 22 98 111 107 88 33 106 22 23 157 338 325 23 162 188 159 202 242 312 75 97 117 114 101